Theta_e
303 303 302 302 302 302 302 303 304 305 305 306 306 308 311 312 311 310 309 308 308 309 309 309 309 308 308 309 308 308 308 308 308 308 308 308 308 308 309 308 309 309 310 311 310 311 313 313 314 315 315 316 319 320 321 321 322 325 326 328 329 329 328 323 321 326 330 329 329 329 330 329 328 326 328 328 326 324 322 322 322 319 317 318 317 316 323
303 303 303 302 302 302 302 302 303 304 305 305 306 308 310 311 312 312 309 308 308 309 309 308 308 308 308 309 308 308 308 308 308 308 308 308 307 308 308 308 309 309 309 310 310 311 313 313 314 315 315 317 318 320 321 320 321 322 324 326 327 328 328 324 321 325 327 325 324 326 327 328 327 326 328 328 329 329 326 326 326 321 319 319 317 316 321
304 304 303 302 302 301 302 302 302 303 304 304 305 308 310 311 312 311 309 308 308 309 309 308 308 308 308 309 308 308 308 308 308 308 307 308 308 308 308 309 309 309 309 310 310 310 312 313 314 315 316 316 317 318 318 319 320 321 323 325 325 326 330 327 322 322 322 320 319 321 323 325 327 328 328 327 329 328 325 323 321 319 322 323 318 316 323
304 304 304 303 302 301 301 301 301 302 303 304 304 307 310 311 310 309 309 309 308 309 309 308 308 308 308 308 308 307 307 308 308 308 308 308 309 308 307 308 309 309 309 309 309 310 311 313 315 315 315 315 315 317 317 317 320 323 324 325 325 327 330 329 327 326 324 324 325 327 327 325 323 324 327 327 328 328 327 322 319 322 324 322 324 325 326
304 304 303 302 302 301 301 301 301 301 302 303 304 307 310 310 309 309 308 308 308 308 308 308 308 308 308 308 309 308 308 307 308 308 308 308 308 308 307 308 309 309 309 309 310 310 311 313 314 313 314 313 313 315 316 317 320 322 322 324 325 326 327 330 331 330 329 333 333 332 331 326 323 324 325 325 327 327 326 321 322 329 324 319 332 340 329
304 303 303 302 302 301 300 301 300 301 301 301 304 307 309 309 309 309 308 308 308 308 307 308 308 307 308 309 309 308 307 307 307 308 308 309 308 308 307 307 308 308 309 309 310 311 311 312 312 312 312 312 312 314 315 316 318 318 319 322 324 325 326 329 329 328 330 334 334 332 332 329 328 327 325 325 327 325 325 324 327 332 326 323 338 344 333
303 303 302 302 302 301 300 300 300 300 300 300 303 307 308 307 308 309 308 308 308 308 307 308 307 307 308 309 308 308 308 307 307 307 307 308 308 309 308 308 308 308 308 309 310 310 311 311 311 311 311 311 312 313 314 315 316 315 317 322 324 324 326 329 329 327 328 330 332 332 332 331 330 329 327 327 327 326 326 327 329 331 330 330 337 339 335
302 302 302 302 301 301 301 300 300 300 300 300 304 306 306 306 306 307 307 307 308 308 307 307 307 307 308 308 308 308 308 307 307 307 307 307 308 309 308 308 308 308 308 309 309 309 310 311 310 310 310 311 312 313 312 313 314 313 316 321 322 323 326 330 329 327 326 328 331 331 331 330 329 329 328 328 327 327 327 328 328 330 331 330 333 336 336
302 302 302 301 301 301 301 301 301 300 299 302 305 306 305 305 305 305 305 307 308 308 308 307 307 306 307 307 308 308 308 307 307 307 308 308 308 308 308 308 308 307 309 309 309 309 309 310 310 310 310 310 311 311 312 311 311 313 315 317 319 322 325 328 329 325 324 327 329 329 331 330 327 327 328 326 326 327 326 328 329 329 329 330 329 330 334
302 302 302 301 301 301 301 300 300 299 300 304 305 305 304 304 304 305 305 306 308 308 308 307 306 306 306 307 308 308 308 309 308 307 308 308 308 307 308 308 308 307 308 308 309 309 309 310 310 309 309 310 310 310 311 311 311 312 314 315 318 321 323 325 325 324 323 327 328 328 328 326 324 326 329 329 329 329 328 329 330 330 330 329 327 328 336
301 301 301 301 301 300 300 300 300 301 302 305 305 305 304 303 303 304 304 305 308 308 308 307 306 307 307 307 308 307 308 309 309 308 308 308 308 308 307 308 308 307 308 309 308 309 309 309 309 309 310 310 310 310 311 311 312 312 313 314 316 318 320 322 325 323 323 325 327 327 325 323 324 329 331 331 331 330 328 328 329 330 331 330 331 335 340
300 300 300 300 301 301 302 303 304 304 305 306 306 306 305 304 303 303 303 304 307 307 307 307 307 307 307 307 308 308 308 308 308 308 308 308 308 308 307 307 308 308 308 308 308 308 309 309 309 310 310 310 311 311 311 311 312 313 313 314 314 316 318 321 323 323 323 324 325 325 322 324 328 331 331 332 331 330 332 330 330 330 330 331 333 335 338
301 302 302 303 304 305 306 306 306 306 307 307 307 307 306 305 303 303 303 303 305 307 307 307 308 308 307 307 308 308 308 308 308 308 308 308 309 309 308 307 308 308 308 308 308 308 309 310 310 311 311 311 312 312 311 311 311 312 313 313 313 315 317 319 321 322 323 323 323 323 325 328 330 332 331 331 331 331 330 329 331 331 330 331 333 335 336
305 305 306 306 307 307 307 307 307 307 308 308 308 308 307 306 304 303 303 303 305 307 307 307 308 308 307 307 308 308 308 307 308 308 308 309 309 309 308 308 308 308 308 308 309 310 309 310 311 312 312 312 312 312 312 311 311 311 312 313 313 314 316 318 320 322 323 322 321 323 325 326 327 330 331 330 331 331 329 327 330 332 332 333 334 334 334
307 307 307 307 307 307 308 308 307 307 308 308 308 308 308 307 305 303 303 303 304 305 306 307 307 308 308 308 307 307 307 307 308 308 309 309 308 308 307 307 307 308 308 309 309 309 310 310 311 312 313 313 313 313 312 311 312 312 312 312 313 314 315 318 320 322 323 322 322 323 322 322 325 329 330 330 330 330 331 328 328 331 332 331 332 334 333
308 308 308 308 308 308 308 308 307 308 308 309 308 308 308 308 307 305 304 304 304 305 307 307 307 308 308 308 307 307 307 308 308 308 308 309 309 308 307 307 307 308 308 309 310 310 310 311 312 313 313 313 313 313 313 312 312 312 312 312 312 313 314 316 318 319 321 321 322 323 321 323 328 329 330 330 330 332 332 326 326 333 334 331 331 332 333
309 309 309 309 309 309 308 308 308 308 309 309 309 308 308 308 308 306 305 304 304 304 306 306 306 307 307 307 307 308 308 308 307 308 308 308 308 308 308 307 308 308 308 308 310 310 310 310 312 313 313 313 313 314 314 314 313 313 312 312 312 312 314 316 317 318 320 320 321 323 324 327 331 330 330 330 331 334 330 324 328 341 342 337 337 334 335
310 310 310 310 310 309 308 308 308 308 309 309 309 309 309 308 308 307 306 305 304 304 305 305 306 307 307 307 308 308 307 307 308 308 308 308 309 309 308 308 308 308 309 309 310 310 311 310 311 313 313 314 314 314 315 315 316 315 313 311 312 312 313 314 317 318 319 319 320 322 327 327 329 330 332 332 330 330 328 328 334 342 342 339 340 341 342
311 311 311 310 309 308 308 308 308 308 309 309 309 309 309 308 308 307 306 306 305 304 305 306 306 307 307 308 308 308 307 307 308 308 307 308 309 308 308 309 309 308 309 310 310 310 311 310 311 312 313 314 316 315 315 315 316 316 314 311 312 313 312 313 315 317 318 320 319 321 327 328 327 328 332 331 330 332 332 334 338 339 339 341 342 343 345
311 310 310 309 309 309 309 308 308 309 309 309 309 309 308 308 308 307 306 306 306 305 305 306 306 306 307 308 308 308 307 308 308 308 307 307 308 308 307 309 309 309 309 309 310 310 311 310 311 312 312 314 315 314 315 316 315 315 315 313 312 312 312 313 314 316 318 319 318 321 329 331 327 329 333 333 334 335 336 336 337 338 340 341 341 343 344
310 309 309 309 310 310 310 309 308 308 309 309 309 309 309 309 308 308 307 306 306 306 306 307 307 307 307 308 308 308 308 308 308 308 307 307 308 308 308 308 309 309 309 309 310 310 311 311 311 312 313 314 313 314 315 315 315 315 315 315 316 315 314 314 315 315 317 318 319 323 327 328 325 329 332 331 331 334 335 335 337 338 338 338 340 341 341
309 309 310 311 312 311 310 309 308 308 309 309 309 309 309 309 309 308 308 307 306 306 307 307 307 307 307 308 308 308 308 308 308 308 308 308 308 308 308 309 309 309 309 310 310 311 311 311 311 311 312 312 313 314 315 315 315 316 316 316 317 319 319 319 319 319 319 320 321 322 324 324 323 326 327 326 327 330 332 334 335 336 336 337 339 339 340
309 311 312 312 311 310 309 309 308 308 309 309 309 309 309 309 309 308 307 307 306 307 307 307 307 308 308 308 308 308 308 308 308 308 308 308 308 308 308 309 309 309 309 309 310 310 311 311 311 311 311 312 312 313 314 314 315 315 315 315 316 318 318 318 319 320 319 319 320 321 322 323 322 322 323 324 325 326 329 332 333 333 334 335 337 338 339
311 312 312 311 311 310 309 308 308 308 308 308 309 309 309 309 309 309 308 307 307 307 307 308 308 308 309 309 309 308 308 308 308 308 308 308 308 308 308 309 309 309 310 310 310 310 311 311 311 312 312 312 313 313 313 314 314 315 315 315 315 315 316 316 317 318 318 319 320 320 321 322 321 321 322 323 323 325 328 330 329 330 332 333 334 336 337
311 312 312 312 311 310 309 309 309 309 308 308 309 309 310 310 309 308 308 308 308 307 308 308 309 309 309 309 308 308 308 308 308 308 308 308 308 308 309 309 309 309 310 310 310 311 311 311 311 312 312 312 312 312 313 313 314 314 315 315 315 315 316 315 316 317 318 318 320 319 319 319 319 319 320 321 323 325 327 326 326 328 329 330 331 334 336
312 312 312 312 312 311 310 310 311 310 310 310 310 310 310 310 310 308 307 308 308 308 308 308 309 309 309 308 309 308 308 307 307 308 308 308 308 308 308 309 309 309 309 309 310 310 311 311 310 311 312 312 312 313 313 313 313 313 314 314 315 315 315 315 316 316 316 317 318 318 318 318 318 318 319 321 323 324 323 324 324 326 327 328 329 331 334
312 313 313 313 313 312 312 312 312 312 311 310 310 311 311 310 310 309 308 308 308 308 308 309 310 310 309 309 309 309 308 307 307 308 308 308 308 308 308 309 309 309 309 309 309 309 309 309 309 310 311 311 312 312 312 313 312 313 313 314 314 314 314 314 315 315 316 317 317 318 318 318 318 318 319 320 322 322 321 322 324 324 325 326 327 329 331
313 313 313 313 313 313 313 312 312 311 311 311 311 311 311 311 310 309 309 308 308 309 310 310 310 310 310 310 310 309 308 308 308 308 309 309 308 309 309 309 309 309 310 309 309 309 309 309 309 310 310 310 310 311 312 312 313 313 314 314 313 313 313 314 314 315 316 316 316 316 317 317 317 318 318 319 320 320 320 321 322 323 324 324 325 326 328
314 314 313 313 313 313 313 312 311 311 311 311 311 311 311 311 310 310 309 309 308 309 309 310 310 310 310 310 310 309 309 309 308 308 308 309 309 309 309 309 309 309 309 309 309 309 309 309 309 310 310 310 309 310 311 311 312 313 314 314 314 314 314 314 314 314 315 315 315 316 316 316 316 317 317 318 318 319 320 320 321 321 322 323 324 325 325
314 314 314 314 314 313 312 312 311 311 312 312 312 313 313 312 311 310 310 309 309 309 309 309 310 310 311 310 310 310 309 309 309 308 308 309 309 309 309 309 309 309 309 310 309 309 310 309 309 309 309 310 310 310 311 311 312 313 313 314 315 314 314 314 314 314 315 315 315 315 316 316 316 317 317 317 317 318 319 319 319 320 320 321 322 323 323
314 314 314 314 314 313 312 311 311 311 312 312 313 314 314 313 311 310 309 309 309 309 309 310 310 310 311 311 311 310 310 310 309 309 310 309 309 309 310 309 310 309 309 309 309 310 310 310 310 310 310 311 311 310 310 311 311 312 313 314 313 313 313 314 314 314 314 314 315 315 315 316 316 317 317 317 317 317 318 319 319 320 320 320 321 322 322
314 314 314 314 313 313 312 311 311 311 311 310 310 311 311 311 310 308 308 308 308 309 309 310 310 310 311 312 311 310 311 311 310 311 311 311 310 310 310 310 310 310 309 309 310 310 310 310 310 310 310 310 310 310 311 310 311 312 312 313 313 313 313 313 314 314 314 314 315 315 316 316 316 316 317 316 317 317 318 319 320 320 321 322 323 323 324
314 314 314 314 313 313 313 312 312 312 312 312 311 309 308 308 308 308 308 309 309 309 309 309 310 311 311 312 312 311 311 311 311 311 311 311 310 310 309 309 309 310 309 309 310 309 309 309 309 309 309 309 309 310 310 311 311 312 312 312 312 312 312 312 313 313 314 314 315 315 316 316 316 316 317 317 317 317 318 318 319 320 320 321 322 323 325
316 316 316 316 315 314 313 313 314 313 313 314 313 310 308 308 308 308 309 310 310 309 309 309 310 310 310 312 313 312 311 311 312 312 312 312 311 311 310 309 309 309 309 309 309 308 308 309 309 309 309 309 309 309 310 311 311 311 311 310 310 310 311 311 312 313 313 314 315 315 316 316 316 316 317 317 317 317 317 318 318 319 320 320 321 322 323
317 317 317 317 316 315 315 314 315 315 315 314 313 311 308 308 308 308 309 310 310 310 310 310 310 310 310 312 313 312 311 312 313 313 313 312 311 310 311 310 310 310 309 308 308 308 307 308 308 309 309 310 310 310 310 310 310 309 308 308 309 309 310 311 312 313 313 314 316 316 316 316 316 316 317 317 317 317 318 318 318 319 320 320 322 323 323
319 318 318 318 318 317 316 315 315 316 315 314 312 311 309 309 308 308 309 309 309 310 310 310 310 311 311 311 312 312 312 313 313 313 313 313 312 311 311 311 311 310 309 309 309 308 307 308 308 308 309 310 310 309 308 307 307 307 308 309 310 311 312 312 313 314 315 315 317 318 317 317 316 317 317 317 317 318 318 318 318 318 319 320 322 324 324
320 319 318 319 319 319 318 317 315 315 314 314 313 312 311 311 310 309 309 309 309 309 309 310 310 311 311 311 312 313 313 313 314 314 314 314 314 313 312 312 312 311 311 311 310 310 309 309 308 308 308 308 308 307 306 307 308 309 311 312 314 315 317 318 316 316 317 318 319 319 318 317 317 318 318 318 318 318 318 318 319 319 319 319 321 323 327
321 320 318 318 319 320 319 318 316 315 315 314 314 313 313 313 312 312 312 311 311 311 310 310 312 312 312 313 314 314 314 314 315 316 315 315 315 315 314 313 313 313 313 313 312 312 311 310 309 308 308 307 308 308 310 311 312 312 313 314 315 316 318 321 321 319 320 320 320 320 318 318 318 319 319 319 319 319 319 319 319 319 320 320 321 324 329
321 321 319 319 319 318 317 317 316 316 316 315 314 314 315 315 316 317 316 315 314 314 313 313 314 315 314 315 316 315 314 315 315 316 316 315 315 315 315 315 314 314 314 313 313 313 313 311 310 308 308 308 310 312 313 314 314 313 313 314 315 315 317 320 322 322 321 321 321 320 319 318 318 319 319 319 319 320 320 320 320 320 320 320 322 327 331
321 321 321 320 319 318 317 316 317 316 316 315 315 317 319 319 319 319 319 318 317 317 316 316 317 317 316 316 316 316 315 315 315 316 316 316 315 316 315 315 315 314 312 311 312 313 312 310 309 309 309 310 311 312 313 314 314 313 313 313 314 314 315 317 319 321 322 322 322 321 321 320 320 320 320 320 320 321 321 321 321 321 321 322 325 329 331
320 321 320 319 319 319 318 317 317 318 318 318 317 318 319 320 320 320 319 319 319 319 319 318 318 318 318 317 317 318 317 317 316 316 317 317 316 316 316 316 315 314 312 311 312 312 311 309 309 309 310 312 312 311 312 314 314 314 313 313 313 313 314 314 316 318 321 322 322 322 322 322 322 322 322 321 321 321 321 321 321 321 322 324 327 328 329
317 318 318 318 318 319 319 319 319 319 319 318 317 316 317 319 321 320 319 319 319 320 319 319 319 319 319 319 319 319 319 318 317 317 318 318 317 317 316 316 315 314 313 312 312 311 309 309 310 310 311 312 312 311 311 313 313 314 314 313 312 312 313 313 314 315 317 319 320 321 322 322 322 322 322 322 321 321 321 322 323 324 325 327 328 328 328
318 318 319 321 321 321 320 319 319 319 318 316 317 318 319 319 320 320 320 320 320 320 319 319 319 319 319 318 318 320 320 319 318 318 319 319 318 317 316 314 314 314 313 312 311 311 310 310 311 312 312 312 311 311 311 311 312 313 314 313 313 312 312 312 313 313 314 315 316 317 318 319 320 321 322 322 322 322 324 326 327 327 327 328 328 328 328
319 319 320 320 320 319 318 317 317 318 318 317 318 320 320 320 319 319 319 319 320 321 321 321 321 321 320 319 319 320 320 320 319 319 319 318 318 317 315 314 314 314 313 311 311 311 311 311 312 312 312 311 311 311 311 311 312 313 314 313 313 313 312 311 311 312 312 313 313 314 315 316 317 319 320 321 322 323 324 326 327 328 327 328 328 327 327
320 319 318 318 317 317 319 318 317 317 318 317 317 319 319 319 319 319 318 319 319 319 320 321 322 321 320 320 320 320 320 320 319 319 319 317 315 314 314 314 313 313 312 312 312 312 312 312 312 312 311 311 311 311 310 310 311 312 313 313 313 313 313 312 312 311 312 312 312 312 312 312 313 313 315 316 317 318 319 320 322 323 324 324 324 325 327
318 317 316 317 316 316 317 316 315 315 316 316 317 318 318 318 319 319 318 319 318 317 317 319 320 320 319 319 319 319 319 318 318 318 317 316 314 314 313 313 313 313 313 313 313 312 312 312 312 311 311 311 311 311 310 310 310 311 312 313 313 313 313 313 312 312 311 311 311 311 311 311 311 311 311 311 312 313 314 315 317 318 319 318 318 319 320
318 317 315 315 315 314 315 314 314 315 315 315 316 316 316 317 318 318 317 318 318 318 317 318 318 318 318 319 318 318 318 317 316 316 316 315 314 314 313 313 313 313 313 313 313 313 312 312 312 311 311 311 311 311 310 310 309 310 311 312 312 312 313 313 313 312 311 311 310 310 310 309 309 309 310 310 310 310 311 311 312 313 314 314 313 313 314
317 316 315 314 314 315 315 315 315 315 315 314 315 315 315 316 316 316 316 317 317 318 318 319 318 318 318 318 317 318 317 318 317 315 315 315 314 313 313 313 314 313 313 313 314 313 312 312 312 312 311 311 311 311 311 310 310 309 310 311 312 312 312 312 313 313 312 311 311 310 309 309 309 308 308 308 309 309 309 309 309 310 310 310 310 310 310
315 315 315 315 315 316 315 315 315 315 315 314 314 314 314 315 315 315 315 315 315 316 318 318 317 316 317 317 317 316 316 316 316 315 314 315 315 314 313 314 314 314 313 313 314 313 312 312 312 312 312 312 311 311 311 311 310 310 310 310 311 312 312 312 312 313 312 312 311 310 309 309 308 308 308 307 307 307 308 308 308 308 308 308 308 308 307
315 314 314 315 315 315 315 315 315 315 315 314 314 314 314 314 314 314 314 315 315 315 316 315 315 315 314 315 315 315 315 315 315 315 315 314 314 314 314 313 313 314 313 312 313 313 313 312 312 312 312 312 311 311 310 311 310 310 310 310 310 311 311 311 312 312 312 312 311 311 310 309 308 308 307 307 307 307 307 307 307 307 307 307 307 307 307
315 314 314 315 315 314 315 314 313 313 314 314 313 313 314 314 313 313 314 314 314 314 314 314 314 314 313 312 313 314 314 314 314 315 314 314 314 314 314 314 314 314 314 313 313 312 312 312 312 312 312 311 311 310 310 310 310 310 310 310 310 310 310 311 311 312 312 312 312 311 311 310 309 308 307 307 306 306 306 307 306 306 306 306 306 306 306
315 315 315 314 314 314 314 314 313 313 313 313 313 313 313 313 313 313 313 314 314 314 314 314 313 313 312 312 313 313 313 314 314 313 313 313 313 314 314 314 314 313 313 312 312 311 311 311 312 311 311 310 310 310 310 310 309 309 309 309 309 309 309 310 310 311 311 312 312 311 311 310 310 309 308 307 306 306 306 306 306 306 306 306 305 306 306
Wind_Speed
26 28 28 28 28 28 29 30 32 34 35 37 35 27 21 16 16 19 12 10 17 15 7 5 5 6 9 10 11 11 10 10 10 11 11 10 9 9 9 11 12 11 10 10 11 12 12 10 10 13 15 15 18 22 23 20 16 10 6 5 9 10 8 9 10 10 12 19 20 20 21 20 17 16 15 13 13 13 11 8 7 8 10 9 7 6 2
26 27 28 29 29 28 28 28 28 30 32 34 31 23 20 21 25 23 11 13 15 11 5 7 6 7 11 11 11 10 9 9 10 10 11 10 9 9 8 11 12 11 11 11 10 11 10 8 10 14 13 16 26 29 27 21 15 8 7 7 5 4 7 10 9 7 9 16 16 15 18 17 13 14 17 18 17 18 14 10 7 7 10 11 8 6 4
25 27 27 28 29 28 28 27 27 27 27 30 29 21 20 21 21 18 15 16 13 8 6 8 7 9 11 11 11 10 8 8 10 11 12 11 11 10 11 14 14 13 11 11 10 9 9 9 11 12 11 16 24 28 34 30 17 9 14 14 10 6 6 8 8 9 11 14 13 12 14 13 12 15 21 23 22 21 15 9 8 7 8 11 9 6 5
25 26 27 28 28 28 28 27 26 25 24 28 29 23 19 17 12 11 15 17 12 7 9 10 8 8 10 9 10 10 9 9 11 11 10 10 12 12 13 15 15 12 12 12 10 9 10 9 8 10 11 12 17 27 38 34 22 21 22 16 10 6 7 9 10 12 9 4 6 10 14 15 16 19 23 25 24 22 15 9 8 8 7 9 8 5 8
25 26 27 27 27 28 28 27 26 24 22 24 26 22 18 13 9 9 12 13 11 9 11 12 9 9 10 8 9 11 10 9 9 9 7 9 12 11 11 12 12 12 13 12 10 10 11 9 9 11 12 11 17 29 34 28 27 34 23 13 7 5 8 11 15 16 11 4 2 1 8 15 21 23 22 24 26 24 18 13 11 9 7 8 8 8 10
26 26 27 26 26 26 27 26 26 23 21 21 21 18 14 10 12 16 14 10 9 10 12 15 13 12 11 8 9 12 10 8 9 8 8 10 8 5 7 10 12 14 15 11 9 10 9 8 8 9 10 13 16 22 24 23 27 32 18 9 5 5 8 11 16 17 15 13 7 6 8 7 14 23 24 24 26 27 22 16 15 12 7 7 9 9 9
26 27 27 26 26 25 25 26 26 24 21 19 17 14 14 13 12 15 16 13 13 16 18 19 16 13 11 9 8 10 10 10 9 8 9 9 6 4 8 12 12 15 15 10 8 8 7 6 7 7 10 13 12 12 16 19 26 28 16 7 7 3 6 11 15 17 16 16 14 10 7 11 10 18 24 22 24 27 23 19 18 15 9 8 10 8 5
27 27 26 26 26 26 26 26 26 26 23 18 13 10 12 14 12 13 16 15 16 19 19 17 13 10 9 9 7 8 11 11 10 9 8 9 8 7 10 13 14 16 16 12 8 7 7 7 7 8 9 10 8 7 8 13 21 24 15 9 10 6 5 8 10 12 14 15 15 12 9 11 14 14 22 24 22 25 24 20 18 16 12 12 12 10 6
27 27 26 27 27 27 28 27 27 27 23 17 13 10 11 15 16 15 14 10 10 14 15 13 11 8 6 7 7 8 10 11 12 11 7 5 9 12 13 13 13 15 16 14 10 9 9 10 11 11 11 10 8 8 9 14 18 18 15 13 11 8 6 7 7 7 9 12 16 15 11 12 15 15 18 25 21 20 21 18 17 14 13 14 13 11 8
27 27 27 28 28 29 29 29 28 26 22 16 14 14 15 18 20 17 13 8 7 11 11 11 10 8 6 8 11 11 12 12 11 8 4 4 9 11 14 15 12 11 14 14 13 13 12 13 14 14 14 15 14 14 18 21 17 13 13 12 9 9 8 5 6 7 8 12 15 14 10 11 10 11 13 18 16 16 18 18 18 17 15 13 10 8 7
28 29 29 29 30 30 30 29 28 25 20 17 17 19 19 20 20 19 13 6 7 9 9 8 8 9 12 14 14 14 15 13 10 7 6 9 10 8 13 17 11 8 13 15 16 17 17 17 17 16 18 20 19 18 21 23 20 15 12 10 9 11 10 6 6 6 8 12 13 11 12 10 6 9 14 11 9 14 19 21 21 18 15 11 8 9 9
30 30 31 31 31 30 29 28 26 23 18 16 18 20 20 18 18 17 10 4 6 8 7 8 10 13 17 19 16 14 14 14 14 13 11 14 12 8 11 16 11 8 13 16 17 18 18 17 16 16 18 20 19 19 19 19 20 19 15 11 10 11 10 6 6 6 7 9 10 12 13 9 7 12 15 8 8 12 11 13 20 22 19 16 14 13 11
31 31 32 31 30 30 28 26 24 20 17 15 18 20 20 18 17 17 12 6 6 7 8 12 17 18 17 17 15 15 16 17 18 17 14 16 13 8 10 15 12 10 13 16 17 17 14 12 10 10 13 14 14 16 18 18 19 18 16 13 9 9 9 6 6 7 5 7 9 10 8 8 11 13 11 8 8 9 7 6 13 19 19 14 10 10 12
31 31 32 31 30 28 26 24 23 20 17 16 18 19 19 19 18 17 14 7 5 9 11 10 12 15 15 16 16 15 16 17 17 14 12 12 12 10 12 16 17 14 13 14 14 12 8 7 7 6 7 8 8 11 14 16 16 16 15 12 9 9 8 6 7 7 5 5 8 8 7 11 14 11 9 9 7 6 5 7 5 4 7 8 7 7 9
31 31 31 31 30 28 26 24 22 20 18 17 18 18 18 20 19 18 15 10 6 10 12 11 11 12 14 17 17 13 11 11 11 11 9 8 9 10 12 15 18 16 13 12 9 7 7 7 6 5 4 5 7 8 8 9 12 15 16 12 9 9 8 6 7 6 4 4 5 7 10 12 10 9 9 8 5 6 6 6 4 1 1 4 7 6 6
31 31 31 30 29 28 26 24 22 19 18 17 19 19 18 20 20 17 16 14 8 5 7 10 12 14 15 17 18 13 9 7 7 8 7 5 8 11 11 12 14 12 12 11 6 4 6 7 6 6 5 5 6 7 7 7 8 12 13 12 11 10 9 7 7 6 6 5 4 6 8 5 5 11 11 8 6 6 7 5 4 1 3 4 8 8 5
30 30 30 29 29 27 25 23 21 19 18 17 18 20 19 20 19 17 18 18 13 12 16 17 14 15 13 11 12 11 10 10 9 7 7 7 8 11 15 16 13 11 12 8 4 2 4 6 6 6 5 6 7 6 5 5 5 8 12 11 9 8 7 6 7 6 6 6 5 4 3 3 8 8 7 9 8 7 6 7 2 7 12 12 6 4 8
29 29 29 28 27 25 23 22 20 19 17 16 18 21 21 19 16 14 17 19 14 14 22 21 16 15 12 9 12 14 13 13 10 7 8 9 7 8 13 14 10 10 11 7 3 3 4 5 5 5 5 5 5 5 5 5 6 2 10 10 6 6 6 6 6 7 7 7 7 3 4 7 14 8 9 8 3 8 6 5 2 11 13 17 16 11 12
28 28 28 27 26 24 23 21 19 18 17 16 18 20 20 17 14 12 16 20 17 14 15 13 13 16 14 12 16 17 15 14 11 8 7 6 8 15 15 8 7 7 8 5 4 4 3 4 5 4 3 3 3 3 4 4 5 3 7 10 5 5 6 4 7 8 6 5 7 3 5 7 15 11 17 18 4 7 2 5 10 12 13 17 18 18 19
27 27 26 26 25 25 23 22 19 17 17 15 16 19 18 16 15 14 15 18 20 20 19 18 18 21 19 17 18 18 15 14 12 8 6 6 12 17 11 4 5 7 4 3 4 4 3 4 5 3 3 2 2 3 4 3 4 5 3 8 6 5 6 5 7 7 6 7 7 2 3 8 16 11 11 13 6 4 6 11 13 16 20 19 17 19 18
26 26 26 26 26 26 24 21 18 17 16 14 15 17 17 15 13 13 14 14 16 17 15 13 13 17 19 19 20 18 16 15 15 13 12 13 13 10 5 5 8 5 2 3 4 3 3 4 4 4 4 4 3 3 4 4 4 5 4 1 1 1 3 4 5 5 6 6 2 1 3 5 16 13 7 7 9 10 11 11 11 16 19 16 15 16 15
26 26 27 27 28 27 24 20 18 16 16 14 14 16 16 14 13 10 10 12 16 17 14 11 12 15 18 19 20 20 20 20 19 17 16 16 12 9 8 10 7 3 2 5 4 2 3 4 4 5 5 6 5 4 5 4 2 4 5 3 2 3 2 1 2 4 5 4 1 4 5 6 16 15 9 9 10 11 11 11 10 13 15 14 14 14 13
27 29 29 30 29 27 23 19 18 17 16 15 15 15 14 13 11 8 8 11 15 17 17 15 16 17 18 19 19 19 19 20 18 16 14 13 12 11 10 8 6 3 3 5 5 5 6 5 5 6 5 5 5 5 5 3 1 3 5 4 4 5 5 4 3 4 7 5 4 6 5 6 12 10 9 9 9 10 11 11 11 12 12 12 13 13 12
30 31 31 31 30 26 22 19 18 17 16 16 15 14 12 11 8 6 8 10 12 14 13 13 14 15 14 13 13 12 13 15 15 13 12 11 10 10 8 6 8 7 5 5 6 8 9 7 6 6 5 5 5 5 5 3 2 3 5 4 4 6 6 6 5 4 6 4 3 2 6 7 8 9 8 8 10 10 10 9 10 11 11 12 12 12 12
31 32 32 31 28 24 20 19 17 15 14 13 11 8 8 7 6 5 7 9 9 8 7 8 10 12 11 11 11 11 11 11 11 10 10 11 12 12 11 10 10 10 9 10 10 11 10 7 6 6 6 6 5 5 5 4 2 3 4 4 3 3 4 5 6 5 6 8 7 10 15 14 10 9 10 9 9 9 9 9 10 10 11 12 12 12 12
31 31 31 28 23 20 17 16 14 12 9 6 3 2 3 4 4 4 6 8 7 6 5 7 8 8 7 9 10 10 9 8 8 9 10 11 12 13 14 14 13 12 12 13 12 13 12 7 5 6 6 5 6 6 5 5 5 6 6 5 5 4 4 5 6 6 7 10 11 13 15 14 11 10 9 8 7 8 9 11 11 12 13 13 13 13 12
31 30 28 22 17 14 14 13 11 8 5 3 3 2 0 2 2 2 4 7 6 3 4 6 8 9 9 11 11 10 10 10 10 11 11 12 13 13 14 14 13 12 13 13 12 12 11 8 6 6 7 7 9 8 8 8 7 7 7 6 5 6 6 5 5 6 6 7 8 9 9 9 9 9 6 7 10 11 13 12 12 13 14 15 15 15 14
30 28 22 16 12 13 13 13 10 7 5 6 6 5 3 2 0 1 4 7 7 5 7 10 12 12 12 10 8 6 8 9 9 10 12 12 12 12 12 12 13 12 11 11 11 9 7 7 8 8 8 10 9 8 9 10 8 6 6 6 6 7 8 7 7 8 8 10 12 12 9 9 12 14 14 13 13 15 16 15 13 13 14 16 17 18 18
27 22 16 13 13 14 14 12 9 8 8 9 8 6 4 3 2 1 3 5 7 8 10 12 11 9 8 7 5 3 4 6 6 7 8 8 8 9 10 10 11 11 11 11 10 8 7 9 11 10 9 11 9 7 8 8 7 6 6 7 8 10 12 12 12 12 14 18 20 18 14 13 16 19 20 16 14 16 19 19 17 15 15 16 16 17 18
21 16 13 13 14 13 11 9 10 10 9 8 6 1 1 2 3 1 2 4 5 6 7 7 7 7 9 8 6 3 2 4 5 5 6 7 8 9 9 10 10 10 10 10 9 9 9 10 11 11 13 14 10 6 6 7 7 8 10 10 12 16 18 19 18 17 18 21 23 23 22 20 18 19 20 18 15 16 20 21 21 20 19 18 18 18 18
16 13 12 13 12 10 10 9 9 9 9 8 5 2 1 1 2 3 2 2 3 3 5 7 8 10 10 6 3 3 4 3 6 6 5 6 8 9 9 10 10 9 9 9 10 9 9 9 10 11 13 15 11 5 6 9 8 9 12 17 19 20 21 22 23 23 23 23 25 26 26 25 22 20 20 19 16 16 19 21 21 20 20 20 20 20 19
13 11 12 12 11 10 11 12 11 10 11 10 7 4 2 1 1 2 2 1 1 1 4 6 6 6 4 3 4 6 7 5 5 5 4 5 9 10 9 9 10 9 9 9 7 6 7 8 9 9 12 14 11 5 6 8 9 12 18 25 28 28 27 27 27 27 27 26 25 23 23 24 24 22 21 20 17 16 18 19 18 17 17 17 17 17 18
10 9 11 12 12 12 12 13 14 13 12 11 8 6 4 2 1 3 4 3 1 2 3 5 4 3 4 5 4 6 9 8 6 6 6 5 7 6 6 7 8 9 8 6 3 3 5 7 7 8 11 12 7 4 5 8 11 18 26 31 33 33 33 33 32 30 29 28 26 24 24 26 26 24 23 23 22 20 20 20 20 19 18 18 18 18 17
9 9 10 12 13 12 12 13 13 13 11 9 7 5 3 2 3 4 4 2 2 2 3 3 3 3 5 6 3 4 8 8 6 7 5 3 4 2 1 2 3 3 3 2 3 3 5 6 6 7 8 7 4 4 4 8 15 24 31 35 38 38 36 35 34 33 31 29 28 29 31 31 29 27 25 25 24 23 21 21 21 20 19 19 19 19 17
10 10 11 11 12 13 14 14 12 10 7 5 4 4 3 1 3 3 4 2 1 2 2 3 3 3 5 4 2 5 8 7 6 6 3 1 3 3 1 1 1 1 0 1 2 3 3 4 4 5 4 3 3 4 4 10 21 29 33 36 41 41 36 32 33 34 31 28 28 30 31 31 30 29 29 28 27 25 23 23 22 21 20 20 19 19 18
10 11 11 11 12 13 13 12 9 6 4 3 3 4 3 1 2 3 4 3 2 1 2 4 3 3 4 3 2 6 9 6 4 4 2 2 3 3 3 2 2 2 1 1 1 2 2 2 3 3 3 2 2 5 11 19 28 34 36 38 41 40 36 35 36 34 30 28 28 28 28 30 31 30 29 29 28 26 25 25 24 23 23 21 20 19 18
9 10 11 12 11 10 8 7 7 6 6 5 4 4 4 3 2 2 3 3 2 2 1 2 3 3 4 3 4 7 7 5 4 3 2 2 2 2 2 2 1 1 0 0 1 3 3 2 2 2 2 3 8 15 22 27 28 31 34 35 34 31 25 23 30 31 28 27 28 28 28 29 29 27 26 27 27 27 27 26 25 25 24 23 21 20 17
9 9 11 12 11 7 5 6 8 9 9 8 5 4 4 3 2 2 1 1 2 2 1 1 2 4 4 4 4 7 6 4 3 3 3 3 1 0 1 1 1 1 1 1 3 4 2 1 1 2 2 7 14 21 24 23 23 29 37 39 39 39 33 16 14 25 26 23 23 24 26 27 27 27 28 28 28 28 28 27 26 25 24 23 22 20 17
10 9 10 10 8 5 6 9 10 10 9 8 6 3 3 2 2 2 0 1 1 1 0 2 3 4 4 3 4 6 5 4 3 3 4 4 3 1 1 1 1 2 2 3 5 6 4 2 2 3 4 8 16 26 33 31 30 37 45 45 44 44 41 32 14 10 23 25 23 22 23 26 28 28 29 29 29 28 27 26 25 25 24 23 22 19 18
10 8 7 7 5 6 9 11 12 11 8 6 4 4 3 1 1 2 3 3 1 1 1 3 4 3 2 3 3 4 6 5 4 3 3 3 2 1 0 0 1 2 3 3 5 6 4 3 4 5 6 8 18 31 38 35 34 39 44 48 49 49 47 44 37 21 4 10 18 21 23 25 27 28 29 29 28 27 26 25 25 25 24 23 21 19 19
7 5 4 2 2 6 10 13 12 10 7 4 3 3 3 3 3 3 3 4 3 2 3 4 5 3 2 2 2 3 4 4 1 2 2 2 1 1 1 1 1 1 3 3 5 5 3 3 5 7 7 13 23 33 37 36 36 39 43 48 51 52 50 48 47 42 32 19 8 2 8 11 13 16 20 22 23 24 24 23 23 24 23 22 21 20 19
5 4 4 4 5 7 8 8 7 6 5 4 3 2 3 3 3 2 1 1 2 4 5 5 4 4 4 5 4 3 3 3 2 3 1 1 1 1 2 2 1 2 3 3 4 3 3 4 6 7 10 18 26 31 34 37 39 40 42 45 48 49 50 51 49 47 43 37 31 25 18 14 11 7 2 8 15 19 20 18 19 19 19 18 19 19 20
8 7 6 5 6 6 5 4 4 3 2 3 3 3 3 4 3 2 2 1 1 1 3 5 5 4 4 5 3 3 4 4 2 2 1 1 1 0 2 3 4 2 1 2 2 3 4 5 6 7 13 21 27 29 32 36 39 39 41 43 44 45 48 50 51 51 49 45 42 41 38 34 30 24 16 8 3 7 10 12 13 13 12 13 16 18 21
9 9 7 4 4 4 2 3 5 4 2 3 4 4 4 6 6 5 4 4 4 2 3 4 6 5 4 3 2 3 2 3 2 2 2 3 3 2 2 4 4 1 0 2 4 4 4 4 6 11 17 22 26 28 30 33 36 38 40 41 42 43 46 49 50 51 51 49 48 48 48 47 44 39 31 26 22 19 17 15 13 11 11 14 17 19 20
7 8 6 4 3 3 1 2 4 4 4 4 4 4 5 6 6 6 7 10 13 14 11 7 6 5 4 4 3 2 2 2 2 1 1 3 4 4 4 4 4 3 3 4 5 4 3 5 9 15 21 24 26 28 30 31 31 34 37 40 41 41 41 43 45 47 47 48 48 49 50 51 51 49 47 43 39 36 35 34 32 28 24 22 20 20 23
6 7 6 3 3 2 3 2 2 3 4 5 5 7 7 6 7 9 11 11 13 15 16 13 9 6 5 5 3 1 1 2 2 2 2 2 3 4 4 4 4 4 4 4 4 4 4 6 10 16 21 25 26 28 30 30 30 31 33 37 39 39 38 38 39 41 42 44 45 47 49 49 48 49 51 50 47 45 44 44 43 42 40 38 35 32 33
6 8 6 3 3 4 5 5 5 6 8 9 11 12 11 10 10 13 14 12 11 12 14 14 13 11 9 7 4 2 3 5 4 5 5 3 3 3 3 4 4 3 3 4 4 3 4 7 12 16 20 23 25 27 29 31 31 31 31 32 35 37 37 37 36 36 36 38 40 43 45 45 45 47 48 47 46 46 47 48 48 47 46 43 41 41 42
7 7 5 3 3 4 5 6 7 9 12 13 14 15 15 13 13 15 16 15 15 13 10 9 9 8 7 7 6 5 6 6 5 5 5 4 2 2 3 3 3 2 2 2 3 3 4 8 12 15 18 22 24 25 27 29 30 30 30 30 31 33 35 36 35 33 32 33 34 36 39 40 41 42 43 42 42 43 44 44 46 47 46 44 42 43 44
6 7 7 6 5 6 8 10 8 9 12 14 14 15 16 15 15 16 17 17 17 15 10 7 8 7 6 6 6 5 6 6 4 3 5 5 4 4 3 3 3 3 3 3 4 5 7 9 11 14 18 21 22 23 24 26 27 29 29 28 27 28 31 32 33 33 32 31 31 33 34 35 36 37 37 38 38 38 37 38 39 41 42 42 41 41 43
4 5 7 8 7 9 12 12 9 8 12 14 15 16 16 16 16 17 18 18 17 15 11 9 8 7 6 6 4 4 5 5 4 3 5 6 4 4 4 4 4 2 1 4 6 8 10 11 13 15 17 19 20 21 23 24 25 26 27 26 26 26 26 27 28 30 31 31 30 31 31 32 32 32 33 33 33 34 34 35 36 36 36 36 36 37 38
3 4 8 11 11 10 10 11 9 8 10 13 15 16 16 16 16 17 19 19 16 13 10 9 8 6 5 5 5 4 4 4 4 4 5 5 4 4 4 5 5 3 2 3 6 9 11 12 14 15 16 18 19 20 21 22 23 24 24 24 24 25 24 24 24 26 27 27 27 29 30 29 29 29 29 29 30 32 33 33 33 33 33 32 32 32 33
8 7 9 11 12 11 10 10 11 11 11 13 14 15 15 16 16 17 17 17 14 11 10 10 8 5 4 5 6 5 4 4 5 6 6 5 4 3 3 6 9 11 10 8 9 9 10 11 13 14 15 17 18 19 19 20 21 22 22 22 22 23 23 23 22 22 23 24 24 26 27 26 26 26 26 27 27 29 29 29 28 29 30 30 30 30 30
Wind_Direction
349 348 348 348 349 349 352 356 358 358 355 354 357 352 335 325 311 304 317 353 340 321 300 331 326 309 338 337 318 320 322 315 319 323 322 321 317 309 307 307 305 308 312 313 319 317 308 300 299 315 330 319 318 337 340 330 322 318 322 295 239 228 236 227 230 252 223 191 186 192 203 210 209 206 209 210 202 199 209 213 200 203 209 213 231 232 162
344 344 345 345 346 347 348 351 357 360 358 354 351 342 328 319 302 295 328 10 340 316 314 333 324 319 332 329 318 321 321 319 326 327 327 329 319 308 310 313 310 309 309 301 304 313 306 300 322 330 329 317 316 326 335 330 319 328 352 340 304 254 236 221 222 255 226 190 182 189 199 210 217 205 202 212 210 198 202 213 208 208 206 202 213 221 164
339 340 342 342 343 344 345 347 351 356 360 357 351 338 321 316 304 300 329 347 331 313 318 322 320 321 323 320 319 322 319 328 334 323 321 330 329 322 316 312 309 303 299 296 296 303 296 302 336 348 339 322 314 324 336 327 305 323 341 324 314 302 261 238 225 225 214 195 189 195 193 199 219 212 198 205 214 204 196 203 208 205 198 198 211 220 158
334 335 338 339 340 341 341 343 345 350 357 356 352 343 321 312 312 317 331 333 322 301 307 316 318 319 323 320 317 321 321 330 331 317 321 348 344 328 316 311 308 304 306 305 298 305 307 313 350 349 331 325 317 325 330 320 316 339 330 302 297 300 276 268 244 229 226 191 173 199 200 193 209 216 201 197 210 212 199 196 209 201 186 197 212 201 148
330 331 333 335 337 337 337 338 340 343 349 352 351 343 324 312 314 325 335 330 315 306 316 321 316 312 319 312 302 316 327 332 327 312 321 354 346 325 316 318 315 312 317 312 303 318 328 339 357 337 326 332 323 323 323 315 333 348 327 278 287 299 270 264 247 241 246 228 83 306 235 207 204 213 208 195 201 212 207 198 199 188 185 198 184 159 159
327 328 329 330 333 334 333 333 335 338 341 346 348 341 327 320 315 318 328 326 310 318 320 312 308 311 313 300 295 311 314 306 313 320 327 338 343 340 323 319 312 310 316 317 311 325 337 345 352 338 332 336 327 327 324 318 340 349 325 280 322 305 274 269 248 244 246 238 246 299 306 271 216 211 211 198 195 207 210 203 196 188 194 197 163 152 167
323 325 325 326 328 330 330 329 329 332 333 337 343 336 326 323 312 312 327 326 308 306 306 305 310 314 307 297 300 306 299 296 311 321 318 317 327 335 308 306 310 309 311 312 311 327 336 329 335 335 328 328 326 327 321 320 339 342 323 317 2 328 278 278 255 245 246 245 246 248 282 311 275 220 211 202 196 202 208 208 200 190 198 201 171 161 162
321 322 323 323 324 326 326 325 325 326 328 331 332 323 320 322 314 313 322 316 301 299 304 309 310 304 301 302 300 289 287 303 318 314 316 322 317 304 296 307 317 312 307 308 307 320 320 297 298 309 310 317 325 321 311 315 328 331 329 348 354 328 276 277 270 254 247 247 251 248 249 279 288 251 214 202 197 198 203 210 206 191 194 202 183 170 168
320 321 321 321 322 322 323 324 322 322 325 326 314 301 306 310 308 311 314 304 294 299 306 308 299 296 307 304 295 290 294 312 320 316 329 329 299 300 309 312 310 301 298 302 308 315 308 287 286 291 288 292 296 292 294 304 313 322 332 340 336 325 293 269 263 256 254 250 243 237 230 244 276 278 224 202 198 198 196 204 211 195 185 196 192 181 173
320 321 320 320 320 320 321 321 319 318 319 313 296 288 297 308 312 316 313 297 287 296 304 304 297 302 313 299 297 301 302 308 310 308 314 279 271 288 298 293 290 294 298 302 309 312 304 292 287 282 275 274 271 269 279 288 295 307 321 326 327 333 331 300 269 255 253 254 240 225 220 232 260 282 239 208 206 208 197 198 212 206 192 195 195 179 174
321 320 318 318 318 318 318 317 316 315 312 302 290 284 289 302 312 314 311 296 280 288 296 299 298 306 307 304 305 303 299 301 300 295 293 285 279 280 287 288 289 294 298 301 305 303 297 291 284 273 266 265 261 262 271 278 284 288 297 310 321 327 327 310 296 274 243 250 249 226 218 220 226 249 241 226 231 228 208 197 202 206 205 200 184 169 179
319 318 317 316 317 317 317 316 315 314 312 303 291 284 284 292 300 300 296 280 285 292 289 287 299 310 308 303 302 300 304 308 302 296 292 291 298 316 304 294 290 287 293 298 302 303 299 291 282 271 264 259 254 253 256 266 277 279 281 292 309 320 318 306 302 287 241 239 242 225 216 211 220 239 235 233 275 272 246 210 199 198 201 199 185 169 159
318 317 316 316 317 317 317 317 315 314 315 304 288 283 284 286 290 290 282 269 276 281 279 287 295 302 303 301 301 305 309 304 294 290 286 286 296 313 290 279 281 295 301 301 304 307 303 294 288 278 265 257 253 248 243 248 263 270 276 283 291 305 311 317 311 285 238 216 222 223 221 215 223 239 232 224 262 287 308 273 212 193 189 185 170 143 128
318 317 316 317 318 318 316 315 313 312 311 301 288 285 281 277 281 283 276 264 268 278 283 292 297 300 305 307 307 309 308 303 296 292 294 306 320 324 306 298 301 304 302 302 305 304 303 302 301 291 264 244 246 245 234 233 241 249 258 266 280 295 297 311 312 284 237 221 226 227 234 220 217 227 217 207 239 269 271 270 254 180 148 138 133 136 145
317 317 317 317 318 318 315 312 309 308 308 300 290 286 281 277 279 279 269 253 260 281 275 260 266 294 315 313 308 308 306 305 308 304 310 336 327 302 294 295 297 300 303 305 305 303 306 303 295 294 271 228 235 236 222 218 223 229 237 243 256 275 281 301 315 295 253 250 241 225 224 212 207 227 222 202 233 285 274 252 251 304 91 150 167 179 185
318 317 318 318 317 316 314 312 309 307 304 298 291 287 283 278 275 273 267 256 250 268 255 243 265 298 313 306 302 310 313 309 317 314 315 329 309 304 310 303 300 320 329 314 307 324 309 291 287 296 292 274 268 248 219 212 208 204 209 216 228 248 265 277 285 282 263 257 263 239 216 190 215 233 215 180 193 265 283 236 201 258 315 258 218 186 143
319 318 318 318 317 316 315 313 313 309 304 298 291 285 285 283 273 264 262 255 244 248 254 258 281 302 306 302 302 311 313 305 308 317 316 312 317 332 335 324 324 356 360 332 305 322 297 283 289 295 292 291 286 274 261 258 233 191 182 193 215 228 248 259 254 269 274 259 267 251 165 32 316 254 182 148 174 216 231 193 170 358 0 355 325 173 115
320 319 319 319 317 316 316 313 312 310 305 300 292 285 287 290 280 261 254 248 239 252 261 261 268 275 274 286 297 301 304 302 305 319 314 308 325 338 331 332 345 359 359 349 303 290 302 297 289 286 295 291 271 278 306 307 303 223 165 168 188 206 223 250 244 251 265 254 255 228 111 359 325 336 45 42 190 193 186 178 300 334 359 18 18 36 59
322 321 320 319 318 317 315 312 312 311 306 301 293 288 288 288 280 267 256 246 235 244 261 260 255 259 265 279 289 292 298 297 299 314 307 305 340 336 329 353 21 349 348 359 305 295 324 314 292 276 281 292 295 314 310 288 317 342 158 164 169 189 202 232 241 246 255 244 248 211 113 344 326 360 30 14 349 176 152 329 322 339 11 24 31 42 40
323 321 320 320 320 318 317 315 314 311 307 304 296 290 288 284 275 268 262 251 241 247 265 270 262 260 263 270 276 284 293 296 298 311 306 306 333 333 326 4 11 343 349 358 321 330 351 321 316 309 282 303 351 334 314 296 327 338 184 171 168 182 192 201 223 244 246 235 251 232 136 342 344 11 35 17 19 93 23 347 347 15 26 21 28 40 33
324 323 323 322 321 319 318 318 316 312 309 306 298 291 288 285 278 268 262 258 247 249 269 284 273 263 262 263 267 273 282 289 292 297 298 300 315 325 318 323 334 334 319 314 325 358 353 322 333 331 309 323 343 340 341 338 334 341 332 246 184 193 207 199 208 239 241 225 250 343 216 345 14 31 50 38 50 59 35 10 10 25 24 19 25 30 24
326 325 324 322 321 320 320 318 317 313 309 305 299 292 287 288 290 277 259 253 246 244 256 276 280 275 269 266 267 269 272 278 282 283 288 292 297 296 289 300 320 354 345 325 326 341 328 320 331 330 320 324 330 337 343 335 352 10 347 302 305 352 343 259 240 274 280 264 296 309 289 15 36 34 26 27 40 52 43 26 23 25 18 15 21 16 12
327 325 324 322 322 321 320 318 317 311 306 303 297 290 286 287 290 274 243 242 247 250 260 273 279 281 278 273 272 272 270 271 271 270 272 277 285 288 287 302 333 1 5 355 342 322 319 320 322 323 321 326 329 327 322 314 1 358 320 279 287 306 299 290 288 309 320 305 232 248 291 29 42 20 1 4 9 29 40 29 20 19 10 10 16 9 2
327 324 323 323 323 322 320 318 315 307 302 298 292 287 286 283 278 255 228 231 243 253 264 269 266 271 282 284 281 279 273 266 261 261 260 258 268 279 286 321 342 334 337 350 324 301 303 311 311 306 307 325 330 315 306 325 30 354 318 293 277 282 284 281 271 281 312 304 196 250 321 0 25 3 336 334 352 17 34 24 11 4 359 3 8 4 1
326 324 324 325 325 323 320 316 312 306 302 295 287 283 281 273 260 237 216 217 231 246 265 275 268 270 282 289 283 279 278 269 255 250 248 246 254 267 280 303 317 312 310 315 307 297 300 307 307 306 307 314 314 302 306 326 343 323 312 297 282 314 336 306 277 265 270 276 291 312 312 314 330 327 306 313 346 11 14 6 358 350 348 356 357 356 2
326 326 328 330 329 325 321 320 319 317 314 306 290 266 263 258 249 229 215 214 222 237 254 276 291 299 298 291 283 273 269 264 251 245 250 253 254 262 274 285 293 295 297 300 299 300 302 299 297 305 306 304 305 303 301 305 299 290 287 281 279 295 297 279 275 277 267 268 277 285 288 292 290 280 284 315 348 354 351 351 347 339 340 346 347 348 356
329 332 335 338 338 334 334 341 345 349 5 42 84 98 304 266 244 219 208 206 215 250 267 275 301 319 311 298 290 274 257 253 252 251 257 261 261 263 268 274 281 290 296 296 296 296 294 291 293 297 302 315 317 307 299 301 296 284 281 284 283 278 272 267 270 265 252 253 264 269 276 284 277 272 304 352 352 340 337 337 337 337 336 336 337 338 342
334 338 343 350 352 349 353 360 8 25 63 81 87 87 71 42 63 204 209 211 223 265 305 307 306 307 307 305 300 274 250 246 251 256 260 263 264 264 266 270 278 287 293 297 301 300 293 299 307 304 314 332 331 312 304 303 288 271 282 292 287 280 279 277 272 270 278 290 292 292 294 294 292 301 321 337 334 325 322 322 325 328 328 328 330 332 333
340 345 354 1 360 358 1 11 29 56 80 83 79 82 84 65 53 222 225 227 235 261 295 305 301 300 311 320 322 298 253 241 245 253 259 266 268 267 269 273 276 282 289 294 299 301 298 303 306 303 317 334 329 307 306 303 286 287 307 311 318 324 316 302 290 286 291 295 296 298 298 294 296 303 310 316 321 315 309 309 314 316 315 317 320 321 325
347 354 4 5 1 3 13 34 56 69 76 73 61 54 179 87 52 1 251 238 242 258 285 300 303 310 316 311 303 305 282 243 248 257 258 266 273 270 273 276 273 277 284 283 286 297 303 308 310 309 323 336 331 303 301 306 292 290 302 317 342 347 334 321 313 305 298 295 294 295 294 291 291 291 291 291 296 297 296 297 301 305 307 308 309 311 314
355 0 8 9 9 20 35 48 62 69 63 50 27 316 261 70 31 352 315 230 228 255 284 289 290 296 304 311 334 350 338 286 271 271 261 266 277 276 274 274 270 271 273 272 282 295 296 300 307 308 324 342 346 311 296 304 292 286 303 317 327 325 315 310 308 304 299 294 290 287 285 282 280 277 276 277 278 280 284 287 291 296 299 300 301 302 302
359 6 18 21 29 48 57 54 54 56 49 38 30 31 48 44 330 356 39 125 173 286 300 298 292 287 307 14 36 11 357 337 305 304 308 291 283 277 269 264 262 263 267 273 289 301 290 295 305 302 313 335 343 318 292 293 283 287 303 309 310 307 303 300 296 292 288 285 282 279 275 270 267 265 265 267 269 270 274 279 282 287 291 293 293 293 290
8 19 30 36 44 57 64 62 57 51 41 31 26 29 43 69 101 86 90 96 38 341 305 304 303 291 317 339 346 349 353 351 346 356 0 332 298 277 257 258 264 267 268 267 273 298 304 315 323 306 302 313 319 290 278 278 278 290 300 302 300 298 295 292 288 283 279 274 269 265 262 260 259 260 263 265 264 262 265 270 272 274 277 279 280 281 280
26 35 35 38 45 52 58 61 57 47 37 32 25 7 6 84 122 114 112 99 327 299 270 287 298 300 316 318 319 351 352 349 356 8 7 338 328 332 261 257 271 266 267 273 261 274 300 313 313 303 301 299 275 252 267 277 285 293 295 293 291 289 287 285 281 274 269 266 260 257 257 257 255 255 257 259 259 258 259 262 262 263 265 266 268 268 269
36 39 33 30 37 44 46 47 46 39 26 19 4 342 340 134 154 136 123 116 310 274 273 300 309 312 319 321 342 357 352 353 360 1 2 13 11 19 68 105 131 172 215 319 290 278 294 297 292 299 311 301 257 243 260 282 289 290 287 284 285 284 279 275 273 268 263 261 257 253 251 249 247 247 247 249 251 252 253 255 255 255 256 259 260 260 258
36 36 32 27 29 39 40 33 29 29 17 359 353 353 3 63 136 111 106 105 86 57 327 316 322 330 331 333 327 331 342 2 14 358 9 43 27 38 81 96 117 140 145 275 267 278 281 273 273 288 307 314 258 261 276 283 286 286 286 287 291 290 279 268 265 264 261 257 254 251 245 241 241 242 243 244 245 246 247 250 251 249 248 249 252 254 250
33 34 36 27 21 33 41 21 3 358 349 343 350 0 8 13 17 56 77 76 50 41 358 314 333 345 329 307 311 328 342 0 356 349 30 49 26 64 80 72 94 114 82 309 290 284 265 246 259 262 247 262 275 282 287 288 289 298 306 314 324 330 316 279 258 254 254 252 250 246 239 234 234 237 240 240 240 240 242 243 245 245 244 243 244 246 240
20 31 42 30 15 15 18 351 336 329 329 334 341 345 352 346 279 235 129 27 356 9 16 278 316 332 307 285 324 350 352 336 323 353 41 38 9 107 101 51 42 19 346 1 345 319 288 206 262 268 271 294 304 316 322 321 325 338 345 348 354 359 360 344 260 239 237 239 239 234 229 228 231 234 235 236 236 237 237 238 240 240 238 238 240 238 227
13 28 45 38 19 10 4 348 335 328 332 342 341 307 277 271 258 242 133 7 324 3 96 278 307 326 316 307 348 4 356 344 355 29 40 30 26 46 58 40 18 347 8 28 356 338 348 31 323 321 338 330 336 349 354 353 357 4 4 3 5 8 15 22 17 252 235 234 236 230 224 225 228 231 232 234 234 234 234 234 235 233 231 233 234 226 215
355 3 30 40 30 7 359 356 353 348 343 338 323 284 259 267 341 335 334 338 358 110 75 325 323 328 323 320 342 358 3 10 21 24 22 25 27 21 55 51 326 357 39 29 346 337 356 14 352 355 359 347 351 357 358 359 6 12 11 11 14 17 22 29 34 35 17 240 242 242 237 235 236 236 233 231 229 229 230 229 228 227 226 224 219 212 210
342 342 359 23 350 330 339 352 1 360 346 326 309 297 306 356 29 14 349 352 10 29 9 344 337 334 329 317 310 334 358 9 331 283 332 29 22 357 67 126 260 7 52 16 334 338 9 13 9 13 357 346 354 0 1 2 8 13 16 19 21 21 23 29 36 42 48 55 54 295 240 234 238 240 234 227 225 226 227 224 222 221 220 217 213 210 207
28 16 347 323 311 315 326 340 352 353 346 348 350 323 318 347 17 35 44 36 2 351 353 347 325 314 334 347 341 327 336 342 285 259 277 68 52 1 42 86 66 40 49 7 328 343 18 15 15 8 348 350 0 5 6 7 9 12 18 24 26 25 26 29 33 39 45 51 56 58 64 70 69 69 168 226 232 230 223 214 212 212 210 206 205 201 191
22 10 350 329 320 316 318 331 341 351 1 356 348 331 322 338 3 25 46 72 255 326 359 349 326 325 357 0 339 301 307 321 307 250 267 37 88 51 27 49 53 48 21 352 1 20 22 19 14 352 345 357 8 11 10 12 13 15 19 25 28 30 31 32 33 36 39 44 51 57 61 63 66 69 74 80 142 198 193 186 190 196 194 185 183 184 180
9 357 345 330 311 302 305 335 343 356 14 351 344 346 346 354 9 16 4 345 335 354 54 22 347 347 5 349 293 255 274 312 302 260 304 6 50 72 37 40 51 91 227 23 32 30 24 24 18 2 358 6 13 14 13 15 16 16 20 25 29 33 35 36 36 36 36 38 44 52 57 61 65 68 70 72 78 87 94 103 118 139 157 166 175 184 180
355 336 325 313 301 312 344 340 335 0 21 359 352 4 3 359 3 359 352 356 357 355 358 7 3 355 356 342 318 250 208 235 245 248 344 12 39 46 38 36 39 40 37 34 30 28 25 22 18 13 11 12 16 16 17 18 18 19 22 26 29 32 35 37 38 40 39 38 41 47 51 55 60 63 65 66 68 71 76 82 91 99 106 112 125 143 148
335 320 315 303 301 341 32 23 349 18 24 2 3 17 13 3 1 355 353 5 7 351 339 337 340 347 357 357 340 281 269 296 326 9 14 28 53 45 33 31 30 26 28 30 28 29 27 19 17 17 15 14 16 18 18 19 20 22 24 26 28 31 35 37 40 43 44 44 44 47 49 51 53 57 61 63 61 61 65 74 82 88 89 85 82 91 106
327 320 321 328 344 11 34 29 15 21 19 9 10 14 10 4 5 2 358 2 7 357 345 338 334 336 340 338 326 335 4 5 11 15 10 21 63 52 28 33 38 25 14 19 21 21 21 19 18 19 18 17 17 17 18 19 21 23 25 26 26 28 32 36 40 44 48 50 51 51 52 53 53 55 58 59 58 57 60 66 72 78 82 80 77 79 86
339 324 323 345 14 24 23 11 9 20 22 15 9 8 6 4 5 5 1 355 349 347 349 345 335 333 340 340 336 353 12 10 10 14 9 13 49 49 27 32 41 27 2 5 19 37 35 20 15 18 21 21 19 18 17 17 19 21 23 24 25 26 29 34 38 43 48 52 55 57 59 59 58 59 60 60 60 59 60 64 68 72 74 76 76 78 82
11 358 355 4 17 17 9 5 9 19 20 16 11 7 5 4 3 2 358 352 346 345 352 355 345 344 355 356 352 6 18 11 5 13 14 13 28 41 32 20 15 9 348 333 358 37 47 31 18 20 23 22 20 20 18 18 19 20 21 23 24 25 27 31 35 40 47 53 58 62 64 64 65 65 65 65 65 64 64 66 69 71 72 72 72 75 78
32 33 24 18 15 7 1 1 9 17 13 11 12 8 2 3 6 0 350 345 348 353 2 7 4 2 8 7 3 16 24 15 5 14 25 25 29 33 28 17 11 10 319 308 338 11 28 27 23 24 23 20 19 21 19 18 18 19 20 22 23 25 26 28 30 35 43 51 56 61 65 67 68 70 70 70 71 71 70 70 71 73 74 74 74 74 76
351 40 43 33 25 17 10 6 7 9 5 7 9 5 360 4 8 357 345 345 353 1 5 10 13 12 14 16 13 6 7 13 18 24 28 29 23 14 13 11 7 6 350 331 349 7 18 23 25 24 21 17 18 20 19 20 19 17 17 20 23 24 24 27 30 33 38 44 51 58 63 67 70 72 73 74 75 75 74 74 74 75 76 77 77 76 76
349 6 39 39 25 17 19 17 7 0 4 9 8 2 360 5 5 355 350 357 6 8 10 16 19 16 12 14 7 353 349 14 33 32 27 29 36 28 349 343 354 2 5 4 5 11 19 23 25 24 21 18 17 17 16 18 19 16 14 17 22 24 25 25 27 30 34 37 43 51 60 66 71 73 71 70 72 74 74 75 78 79 79 79 78 78 78